sat.trackr.live / text

‹ back to catalog

STARLINK-30983

NORAD 58514 · 2023-191G

PAYLOAD ACTIVE UNKNOWN

§ Identity

Operator
Country
US
Launch date
2023-12-07
Launch site
AFETR
Launch vehicle
Mass (kg)
RCS (m²)

Purposes: comms

External: N2YO · Heavens-Above · Gunter

§ Orbital elements

Epoch: 2026-09-20T21:15:06.330816Z

Period
94.27 min
Inclination
43.0034°
Eccentricity
0.0001048
Mean motion
15.27576436 rev/d
Perigee alt
482.3 km
Apogee alt
483.8 km
Semi-major
6,861.2 km
B*
5.5273e-6
RAAN
81.1038°
Arg perigee
288.4360°
Mean anomaly
71.6378°
Rev number
15,497

§ Raw data

STARLINK-309831 58514U 23191G   26263.88548994 -.00000110  00000+0  55273-5 0  99922 58514  43.0034  81.1038 0001048 288.4360  71.6378 15.27576436154978

JSON: /api/v1/satellites/58514 · /tle

For live sub-satellite position, see the globe view (requires WebGL).

§ Visibility from observer

Set your observer location to see the next 7 days of passes ≥ 10°. The values pass through the URL so the page stays shareable.

No JS? Fill the form by hand. The geolocation button needs JavaScript.